Date,TemperatureHighF,TemperatureAvgF,TemperatureLowF,DewpointHighF,DewpointAvgF,DewpointLowF,HumidityHigh,HumidityAvg,HumidityLow,PressureMaxIn,PressureMinIn,WindSpeedMaxMPH,WindSpeedAvgMPH,GustSpeedMaxMPH,PrecipitationSumIn
2013-6-1,92.5,71.5,52.9,61.0,50.1,45.0,78,50,26,29.94,29.78,4,0,10,0.00
2013-6-2,86.8,68.9,52.3,56.0,50.1,46.0,79,54,30,29.78,29.65,6,0,8,0.00
2013-6-3,69.0,58.9,47.9,55.0,50.9,46.0,94,76,57,29.88,29.69,5,1,12,0.00
2013-6-4,66.8,55.9,50.3,54.0,50.5,48.0,93,83,63,29.98,29.87,6,1,13,0.00
2013-6-5,74.7,57.2,48.9,57.0,51.0,48.0,96,82,54,30.01,29.92,8,1,11,0.00
2013-6-6,83.8,60.7,47.7,61.0,52.6,46.0,96,78,44,29.96,29.85,5,0,7,0.00
2013-6-7,98.6,70.2,47.2,64.0,54.9,46.0,95,65,27,29.88,29.74,3,0,9,0.00
2013-6-8,100.9,77.9,54.0,67.0,59.0,50.0,87,56,28,29.79,29.68,6,1,13,0.00
2013-6-9,64.4,55.9,52.8,55.0,52.5,50.0,95,88,71,29.89,29.81,7,1,10,0.00
2013-6-10,56.4,54.0,51.9,55.0,52.7,51.0,96,95,94,29.99,29.83,2,0,10,0.21
2013-6-11,77.6,60.7,48.0,62.0,54.5,47.0,96,82,54,30.01,29.90,5,0,8,0.00
2013-6-12,83.4,62.3,44.6,50.0,45.4,38.0,94,60,20,29.99,29.91,7,1,11,0.00
2013-6-13,82.5,62.4,42.8,50.0,44.3,40.0,90,57,24,30.10,29.99,8,1,13,0.00
2013-6-14,85.9,65.7,50.9,50.0,42.6,32.0,82,51,16,30.02,29.83,6,0,8,0.00
2013-6-15,81.9,64.7,47.0,56.0,48.5,41.0,91,59,35,29.97,29.81,9,1,12,0.00
2013-6-16,87.5,67.3,50.3,53.0,47.3,43.0,83,53,23,30.06,29.97,6,1,14,0.00
2013-6-17,82.3,64.6,49.3,56.0,50.1,45.0,85,62,37,30.07,29.99,6,1,11,0.00
2013-6-18,74.6,60.1,47.0,51.0,46.3,41.0,94,65,30,30.01,29.94,8,2,13,0.00
2013-6-19,78.1,60.7,44.9,48.0,45.1,43.0,92,61,31,30.06,29.99,5,1,10,0.00
2013-6-20,82.3,63.1,44.5,50.0,44.1,35.0,93,56,18,30.02,29.92,6,1,11,0.00
2013-6-21,85.3,66.1,48.8,50.0,45.6,43.0,84,52,24,29.98,29.90,10,1,14,0.00
2013-6-22,88.5,69.7,50.8,51.0,46.8,42.0,78,49,20,29.93,29.82,6,1,11,0.00
2013-6-23,67.3,59.9,54.6,60.0,55.1,50.0,94,84,71,29.84,29.80,10,1,12,0.00
2013-6-24,60.2,55.5,53.2,58.0,54.1,52.0,96,95,90,29.92,29.79,5,0,6,0.23
2013-6-25,62.2,59.7,56.1,61.0,58.6,55.0,96,96,95,30.00,29.89,5,0,9,0.92
2013-6-26,76.2,65.1,59.1,68.0,62.3,58.0,97,91,67,30.07,29.98,3,0,7,0.04
2013-6-27,89.9,70.7,55.7,68.0,61.8,55.0,96,77,38,30.10,30.01,4,0,8,0.00
2013-6-28,98.5,78.0,61.0,70.0,62.7,55.0,95,64,33,30.04,29.90,4,0,8,0.00
2013-6-29,100.7,80.8,63.6,69.0,60.3,56.0,79,53,28,29.92,29.79,7,0,9,0.00
2013-6-30,97.6,79.1,63.5,67.0,59.8,55.0,78,54,29,29.83,29.74,4,0,8,0.00